Weather History for PAFB - May, 2013

Change the Weather History Date:

Thursday, May 30, 2013

  Actual Average Record
Temperature  
Mean Temperature 66 °F -  
Max Temperature 82 °F 63 °F 82 °F (2013)
Min Temperature 50 °F 45 °F 37 °F (2008)
Cooling Degree Days 1    
Growing Degree Days 16 (Base 50)    
Moisture  
Dew Point 33 °F    
Average Humidity 30    
Maximum Humidity 59    
Minimum Humidity 10    
Precipitation  
Precipitation 0.00 in - - ()
Sea Level Pressure  
Sea Level Pressure 29.78 in    
Wind  
Wind Speed 4 mph (East)    
Max Wind Speed 8 mph    
Max Gust Speed -    
Visibility 10 miles    
Events      
Averages and records for this station are not official NWS values.
T = Trace of Precipitation, MM = Missing Value Source: NWS Daily Summary

Daily Weather History Graph

Daily Weather History Graph

Search for Another Location

Airport or City:

Trip Planner

Search our weather history database for the weather conditions in past years. The results will help you decide how hot, cold, wet, or windy it might be!

Date:

Astronomy

May. 30, 2013 Rise Set
Actual Time 3:36 AM AKDT 12:02 AM AKDT
Civil Twilight Sun does not set Sun does not set
Nautical Twilight Sun does not set Sun does not set
Astronomical Twilight Sun does not set Sun does not set
Moon 2:10 AM AKDT (5/30) 12:01 PM AKDT (5/30)
Length of Visible Light 24h 00m
Length of Day
20h 25m
Waning Gibbous, 61% of the Moon is Illuminated
May 30
Waning Gibbous
May 31
Last Quarter
Jun 8
New
Jun 16
First Quarter
Jun 23
Full

Hourly Weather History & Observations

Time (AKDT) Temp. Dew Point Humidity Pressure Visibility Wind Dir Wind Speed Gust Speed Precip Events Conditions
12:56 AM 62.1 °F 33.1 °F 34% 29.70 in 10.0 mi East 3.5 mph - N/A   Clear
1:56 AM 62.1 °F 33.1 °F 34% 29.70 in 10.0 mi NE 3.5 mph - N/A   Clear
2:56 AM 55.9 °F 35.1 °F 45% 29.72 in 10.0 mi NE 3.5 mph - N/A   Clear
3:56 AM 50.0 °F 36.0 °F 59% 29.74 in 10.0 mi ENE 4.6 mph - N/A   Clear
4:56 AM 54.0 °F 34.0 °F 47% 29.76 in 10.0 mi ENE 4.6 mph - N/A   Clear
5:56 AM 55.0 °F 35.1 °F 47% 29.77 in 10.0 mi East 8.1 mph - N/A   Clear
6:30 AM 55.4 °F 35.6 °F 47% 29.78 in 25.0 mi ENE 6.9 mph - N/A   Partly Cloudy
6:55 AM 57.2 °F 37.4 °F 48% 29.78 in 25.0 mi East 4.6 mph - N/A   Partly Cloudy
7:55 AM 62.6 °F 39.2 °F 42% 29.79 in 25.0 mi East 5.8 mph - N/A   Partly Cloudy
8:55 AM 66.2 °F 37.4 °F 35% 29.79 in 25.0 mi East 6.9 mph - N/A   Partly Cloudy
9:55 AM 68.0 °F 37.4 °F 33% 29.80 in 25.0 mi SE 6.9 mph - N/A   Partly Cloudy
10:55 AM 71.6 °F 37.4 °F 29% 29.80 in 25.0 mi ENE 1.2 mph - N/A   Partly Cloudy
11:55 AM 73.4 °F 35.6 °F 25% 29.81 in 25.0 mi ESE 2.3 mph - N/A   Partly Cloudy
12:55 PM 75.2 °F 37.4 °F 25% 29.80 in 25.0 mi Variable 2.3 mph - N/A   Partly Cloudy
1:55 PM 78.8 °F 35.6 °F 21% 29.79 in 25.0 mi Variable 3.5 mph - N/A   Partly Cloudy
2:55 PM 80.6 °F 26.6 °F 14% 29.79 in 25.0 mi Variable 3.5 mph - N/A   Partly Cloudy
3:55 PM 80.6 °F 28.4 °F 15% 29.78 in 25.0 mi Calm Calm - N/A   Partly Cloudy
4:55 PM 82.4 °F 26.6 °F 13% 29.78 in 25.0 mi Variable 3.5 mph - N/A   Scattered Clouds
5:55 PM 82.4 °F 23.0 °F 11% 29.77 in 25.0 mi Calm Calm - N/A   Scattered Clouds
6:55 PM 82.4 °F 21.2 °F 10% 29.77 in 25.0 mi SSE 6.9 mph - N/A   Scattered Clouds
7:55 PM 82.4 °F 21.2 °F 10% 29.78 in 25.0 mi Variable 5.8 mph - N/A   Scattered Clouds
8:55 PM 78.8 °F 35.6 °F 21% 29.79 in 25.0 mi WNW 8.1 mph - N/A   Partly Cloudy
9:55 PM 75.2 °F 35.6 °F 24% 29.81 in 25.0 mi NW 4.6 mph - N/A   Partly Cloudy
10:56 PM 73.0 °F 36.0 °F 26% 29.82 in 10.0 mi Calm Calm - N/A   Clear
11:56 PM 63.0 °F 39.9 °F 43% 29.83 in 10.0 mi SSE 6.9 mph - N/A   Clear